Powrót do katalogu

DB-SKYFORGE CORE-TU

AktywnyKrótkofalarstwoSSO
NORAD 68445·PAYLOAD·🇺🇸 United States

Wystrzelony Mar 30, 2026 z Vandenberg Space Force Base

Loading…

Następne Przeloty (najbliższe 24 godziny)

TLE

ŚwieżeSource: Space-Track

Epoka: Sep 14, 2026, 03:10 UTC

1 68445U 26067AF  26257.13234631  .00003320  00000-0  16676-3 0  9990
2 68445  97.4623 214.1177 0006494 118.0405 242.1487 15.17960491 25429

Śledź DB-SKYFORGE CORE-TU w czasie rzeczywistym z AllMySat

Download on the App Store